Location: Crescent
(42.8242°N, 73.7329°W)
Time: 15:47:36
(UTC+00:00)

Courier 1B - Pass Details

Date: 17 February 2026
Orbit: 962 x 1208 km, 28.3° (Epoch: 7 March)

Event Time Altitude Azimuth Distance (km) Brightness Sun altitude
Rises 00:08:19 0° 212° (SSW) 3,903 11.1 -19.0°
Reaches altitude 10° 00:12:20 10° 192° (SSW) 2,998 10.2 -19.7°
Maximum altitude 00:16:25 16° 158° (SSE) 2,643 9.5 -20.5°
Enters shadow 00:17:54 15° 145° (SE) 2,713 9.5 -20.8°
